Retour au catalogue

COSMOS 2251 DEB

ActifLEO
NORAD 35465·DEBRIS·🇷🇺 Russia

Lancé Jun 16, 1993 depuis Plesetsk Cosmodrome

Loading…

Prochains Passages (prochaines 24 heures)

TLE

VieillissantSource: Space-Track

Époque: Sep 9, 2026, 17:24 UTC

1 35465U 93036ALK 26252.72537112  .00000862  00000-0  24885-3 0  9995
2 35465  73.9978  51.3068 0063255 148.4159 212.0821 14.44971815911555

Suivez COSMOS 2251 DEB en temps réel avec AllMySat

Download on the App Store